{"data":{"norad_id":65629,"intl_designator":"2025-210H","name":"STARLINK-35135","alt_names":[],"object_type":"PAYLOAD","status":"ACTIVE","operator":null,"country":"US","launch_date":"2025-09-18","launch_site_code":"AFETR","launch_vehicle":null,"mission":null,"orbit_class":"UNKNOWN","rcs_meters":null,"size_class":null,"mass_kg":null,"dimensions":null,"purposes":["comms"],"wikipedia_slug":null,"has_3d_model":false,"image_url":null,"decayed_at":null,"tle_current":{"epoch":"2026-05-25T04:43:34.165344Z","epoch_age_seconds":61135,"freshness":"FRESH","line1":"1 65629U 25210H   26145.19692321  .00022611  00000+0  67799-3 0  9991","line2":"2 65629  53.1602 311.0762 0000901  86.0737 274.0368 15.34416278 39450","mean_motion":15.34416278,"eccentricity":9.01e-5,"inclination_deg":53.1602,"raan_deg":311.0762,"arg_perigee_deg":86.0737,"mean_anomaly_deg":274.0368,"bstar":0.00067799,"rev_number":3945,"period_min":93.84676248853,"perigee_km":462.0385036419,"apogee_km":463.27121433489,"semimajor_km":6840.7918589884,"source":"CELESTRAK","updated_at":"2026-05-25T13:38:20.881270Z"}}}